Everett, WA

1:21 PM PDT on May 27, 2018 (GMT -0700)
Snohomish County

Weather History for KPAE - January, 2013

Change the Weather History Date:

Thursday, January 17, 2013

  Actual Average Record
Temperature  
Mean Temperature 32 °F -  
Max Temperature 36 °F 44 °F 57 °F (1956)
Min Temperature 28 °F 35 °F 15 °F (1950)
Degree Days  
Heating Degree Days 33    
Moisture  
Dew Point 30 °F    
Average Humidity 92    
Maximum Humidity 100    
Minimum Humidity 86    
Precipitation  
Precipitation 0.00 in - - ()
Sea Level Pressure  
Sea Level Pressure 30.39 in    
Wind  
Wind Speed 2 mph (SW)    
Max Wind Speed 6 mph    
Max Gust Speed -    
Visibility 4 miles    
Events Fog    
Averages and records for this station are not official NWS values.
T = Trace of Precipitation, MM = Missing Value Source: NWS Daily Summary

Daily Weather History Graph

Daily Weather History Graph

Search for Another Location

Airport or City:

Astronomy

Jan. 17, 2013 Rise Set
Actual Time 7:51 AM PST 4:47 PM PST
Civil Twilight 7:17 AM PST 5:21 PM PST
Nautical Twilight 6:38 AM PST 6:00 PM PST
Astronomical Twilight 6:01 AM PST 6:37 PM PST
Moon 10:28 AM PST (1/17) No Moon Set
Length of Visible Light 10h 04m
Length of Day
8h 55m
Waxing Crescent, 39% of the Moon is Illuminated
Jan 17
Waxing Crescent
Jan 18
First Quarter
Jan 26
Full
Feb 3
Last Quarter
Feb 9
New

Hourly Weather History & Observations

Time (PST) Temp. Windchill Dew Point Humidity Pressure Visibility Wind Dir Wind Speed Gust Speed Precip Events Conditions
12:53 AM 32.0 °F 28.7 °F 28.4 °F 87% 30.50 in 7.0 mi North 3.5 mph - N/A   Clear
1:53 AM 32.0 °F - 28.9 °F 88% 30.52 in 6.0 mi Calm Calm - N/A   Clear
2:53 AM 32.0 °F 28.7 °F 28.9 °F 88% 30.51 in 8.0 mi NNE 3.5 mph - N/A   Clear
3:53 AM 32.0 °F 28.7 °F 28.4 °F 87% 30.47 in 9.0 mi North 3.5 mph - N/A   Clear
4:53 AM 30.9 °F - 28.0 °F 89% 30.47 in 6.0 mi Calm Calm - N/A   Clear
5:43 AM 30.2 °F - 28.4 °F 93% 30.44 in 2.5 mi Calm Calm - N/A   Partly Cloudy
5:50 AM 30.2 °F - 28.4 °F 93% 30.44 in 1.2 mi Calm Calm - N/A   Mostly Cloudy
5:53 AM 30.0 °F - 28.0 °F 92% 30.46 in 0.8 mi Calm Calm - N/A   Mist
5:58 AM 30.2 °F - 28.4 °F 93% 30.43 in 0.2 mi Calm Calm - N/A Fog Light Freezing Fog
6:13 AM 30.2 °F 26.7 °F 28.4 °F 93% 30.43 in 1.0 mi NNE 3.5 mph - N/A   Mist
6:16 AM 30.2 °F - 28.4 °F 93% 30.43 in 2.0 mi Calm Calm - N/A   Scattered Clouds
6:23 AM 30.2 °F 26.7 °F 28.4 °F 93% 30.43 in 5.0 mi NNE 3.5 mph - N/A   Partly Cloudy
6:47 AM 30.2 °F 25.4 °F 28.4 °F 93% 30.43 in 1.2 mi North 4.6 mph - N/A   Mostly Cloudy
6:53 AM 30.0 °F - 28.0 °F 92% 30.45 in 0.2 mi Calm Calm - N/A Fog Light Freezing Fog
7:00 AM 30.2 °F 26.7 °F 28.4 °F 93% 30.43 in 0.2 mi North 3.5 mph - N/A Fog Light Freezing Fog
7:05 AM 30.2 °F - 28.4 °F 93% 30.43 in 0.2 mi Calm Calm - N/A Fog Light Freezing Fog
7:29 AM 28.4 °F - 26.6 °F 93% 30.43 in 10.0 mi Calm Calm - N/A   Clear
7:53 AM 28.0 °F - 26.1 °F 92% 30.45 in 10.0 mi Calm Calm - N/A   Clear
8:53 AM 30.0 °F 26.5 °F 28.0 °F 92% 30.46 in 10.0 mi SSE 3.5 mph - N/A   Clear
9:53 AM 33.1 °F 30.0 °F 30.9 °F 92% 30.46 in 10.0 mi South 3.5 mph - N/A Fog Patches of Fog
10:53 AM 35.1 °F 32.2 °F 32.0 °F 89% 30.45 in 7.0 mi SW 3.5 mph - N/A   Clear
11:43 AM 35.6 °F 32.8 °F 33.8 °F 93% 30.41 in 10.0 mi SW 3.5 mph - N/A   Scattered Clouds
11:53 AM 36.0 °F 31.1 °F 32.0 °F 86% 30.43 in 10.0 mi SW 5.8 mph - N/A   Mostly Cloudy
12:00 PM 35.6 °F - 32.0 °F 87% 30.40 in 3.0 mi Calm Calm - N/A   Scattered Clouds
12:04 PM 35.6 °F 32.8 °F 32.0 °F 87% 30.40 in 0.2 mi WSW 3.5 mph - N/A Fog Fog
12:21 PM 33.8 °F 29.6 °F 32.0 °F 93% 30.39 in 0.2 mi West 4.6 mph - N/A Fog Fog
12:53 PM 34.0 °F 29.8 °F 33.1 °F 96% 30.40 in 0.2 mi West 4.6 mph - N/A Fog Fog
1:07 PM 33.8 °F 30.8 °F 33.8 °F 100% 30.38 in 0.2 mi West 3.5 mph - N/A Fog Fog
1:53 PM 34.0 °F - 33.1 °F 96% 30.38 in 0.2 mi Calm Calm - N/A Fog Fog
2:53 PM 35.1 °F - 33.1 °F 92% 30.35 in 0.2 mi Calm Calm - N/A Fog Fog
3:13 PM 35.6 °F - 33.8 °F 93% 30.33 in 0.2 mi Calm Calm - N/A Fog Fog
3:17 PM 35.6 °F - 33.8 °F 93% 30.33 in 1.0 mi Calm Calm - N/A   Overcast
3:33 PM 35.6 °F - 33.8 °F 93% 30.33 in 1.0 mi Calm Calm - N/A   Overcast
3:44 PM 33.8 °F - 33.8 °F 100% 30.33 in 0.2 mi Calm Calm - N/A Fog Fog
3:53 PM 34.0 °F - 32.0 °F 92% 30.35 in 0.2 mi Calm Calm - N/A Fog Fog
4:44 PM 32.0 °F 28.7 °F 30.2 °F 93% 30.32 in 0.2 mi South 3.5 mph - N/A Fog Fog
4:53 PM 33.1 °F 30.0 °F 30.9 °F 92% 30.34 in 8.0 mi SSE 3.5 mph - N/A Fog Patches of Fog
5:53 PM 33.1 °F - 30.0 °F 89% 30.34 in 10.0 mi Calm Calm - N/A Fog Patches of Fog
6:53 PM 33.1 °F - 30.9 °F 92% 30.32 in 4.0 mi Calm Calm - N/A Fog Patches of Fog
7:53 PM 30.9 °F 25.2 °F 28.0 °F 89% 30.33 in 4.0 mi South 5.8 mph - N/A Fog Patches of Fog
8:53 PM 30.0 °F - 27.0 °F 88% 30.32 in 4.0 mi Calm Calm - N/A   Clear
9:25 PM 28.4 °F - 26.6 °F 93% 30.30 in 4.0 mi Calm Calm - N/A   Scattered Clouds
9:29 PM 28.4 °F 24.6 °F 26.6 °F 93% 30.30 in 1.5 mi South 3.5 mph - N/A   Scattered Clouds
9:32 PM 28.4 °F 24.6 °F 26.6 °F 93% 30.30 in 0.8 mi SSW 3.5 mph - N/A   Mist
9:44 PM 28.4 °F - 26.6 °F 93% 30.30 in 0.5 mi Calm Calm - N/A Fog Light Freezing Fog
9:50 PM 28.4 °F - 26.6 °F 93% 30.30 in 1.2 mi Calm Calm - N/A   Partly Cloudy
9:53 PM 30.0 °F - 27.0 °F 88% 30.32 in 2.5 mi Calm Calm - N/A   Partly Cloudy
10:00 PM 28.4 °F - 26.6 °F 93% 30.30 in 5.0 mi Calm Calm - N/A   Clear
10:53 PM 28.0 °F 24.2 °F 26.1 °F 92% 30.31 in 4.0 mi South 3.5 mph - N/A   Clear
11:53 PM 28.0 °F 22.8 °F 26.1 °F 92% 30.30 in 5.0 mi South 4.6 mph - N/A   Clear